星链-1033 (STARLINK-1033 )

导读 | 星芒AI

STARLINK-1033 是 SpaceX Starlink 项目中的第1033颗卫星,属于其低轨卫星互联网星座的一部分。该卫星于2022年发射,旨在为全球用户提供高速互联网服务,尤其关注网络覆盖不足的地区。它运行在约550公里高度的近地轨道,配备先进通信设备和星间激光链路,提高数据传输效率。Starlink 项目通过大规模部署此类卫星,构建全球宽带网络,支持远程办公、教育和应急通信等应用。

基本信息
目录编号:
44738
目录名称:
STARLINK-1033
国际标识:
2019-074AB
轨道中心:
EARTH
卫星名称:
星链-1033
卫星全名:
星链-1033 (STARLINK-1033 )
卫星状态:
已陨落 最后检测时间 2023-10-08
发射日期:
2019-11-11 UTC
国别 :
美国 (US)
星等 :
--
轨道信息
数据来源 国际轨道数据
星历时间: 2023-10-08T16:28:38+0800
轨道信息已过期757天
半长轴: 6560.522km
偏心率: 0.0007554
轨道倾角: 53.052°
近地点辐角 261.897°
升交点赤经 135.183°
平近点角 246.323°
近地点: 177.431km
远地点: 187.343km
周期: 88.139分钟
每日圈数: 16.337862
详细信息
固有亮度:
5
最大亮度:
2.5
卫星平台:
Starlink V1.0
覆盖范围:
全球
运营商:
太空探索技术公司
运营商所在国:
美国
制造商(研发单位):
太空探索技术公司
制造商所在国:
美国
使用方式:
暂无
卫星简介
星链(Starlink)计划是由太空探索技术公司(SpaceX)提出的一个巨型低轨卫星互联网星座项目,计划在2019年至2024年间在太空搭建由约1.2万颗卫星组成的“星链”网络,其中1584颗将部署在地球上空550千米处的近地轨道,并从2020年开始工作。该卫星已陨落。